DW8108 Weather Reports


Display with metric or nautical units.
time (UTC)temp
F
wind
direction
speed
MPH
gust
MPH
rain 1hr
in
rain 24hr
in
rain mn
in
humidity
%
barometer
mb
20260903193016 89 0.0 11.0 0.00 0.00 0.00 70 1012.3
20260903191515 89 0.0 15.0 0.00 0.00 0.00 70 1012.4
20260903190016 88 0.0 14.0 0.00 0.00 0.00 68 1012.6
20260903184516 91 0.0 19.0 0.00 0.00 0.00 67 1012.5
20260903183014 94 0.0 15.0 0.00 0.00 0.00 63 1012.6
20260903181512 94 0.0 7.0 0.00 0.00 0.00 65 1012.3
20260903180010 94 0.0 10.0 0.00 0.00 0.00 66 1012.3
20260903174517 94 0.0 11.0 0.00 0.00 0.00 63 1012.4
20260903173009 94 0.0 11.0 0.00 0.00 0.00 64 1012.5
20260903171507 93 0.0 8.0 0.00 0.00 0.00 67 1012.4
20260903170005 92 0.0 8.0 0.00 0.00 0.00 69 1012.3
20260903164502 92 0.0 5.0 0.00 0.00 0.00 68 1012.3
20260903163108 91 0.0 6.0 0.00 0.00 0.00 69 1012.3
20260903161558 91 0.0 7.0 0.00 0.00 0.00 69 1012.4
20260903160106 90 0.0 6.0 0.00 0.00 0.00 70 1012.5
20260903154553 89 0.0 7.0 0.00 0.00 0.00 72 1012.6
20260903153051 88 0.0 6.0 0.00 0.00 0.00 72 1012.7
20260903151547 87 0.0 7.0 0.00 0.00 0.00 74 1012.9
20260903150043 86 0.0 6.0 0.00 0.00 0.00 77 1012.9
20260903144544 85 0.0 9.0 0.00 0.00 0.00 78 1012.8
20260903143035 84 0.0 5.0 0.00 0.00 0.00 82 1012.7
20260903141531 82 0.0 5.0 0.00 0.00 0.00 85 1012.6
20260903140028 80 0.0 6.0 0.00 0.00 0.00 88 1012.6
20260903134523 79 0.0 6.0 0.00 0.00 0.00 91 1012.7
20260903133019 77 0.0 5.0 0.00 0.00 0.00 95 1012.8
20260903131517 76 0.0 6.0 0.00 0.00 0.00 96 1013.0
20260903130017 75 0.0 6.0 0.00 0.00 0.00 97 1013.1
20260903124516 74 0.0 3.0 0.00 0.00 0.00 97 1013.1
20260903123017 73 0.0 3.0 0.00 0.00 0.00 97 1013.1
20260903121513 72 0.0 4.0 0.00 0.00 0.00 97 1013.1
20260903120014 72 0.0 0.0 0.00 0.00 0.00 96 1013.2
20260903114512 72 0.0 0.0 0.00 0.00 0.00 96 1013.1
20260903113011 72 0.0 1.0 0.00 0.00 0.00 96 1013.0
20260903111510 72 0.0 3.0 0.00 0.00 0.00 96 1013.1
20260903110009 72 0.0 2.0 0.00 0.00 0.00 96 1012.9
20260903104507 72 0.0 1.0 0.00 0.00 0.00 96 1012.8
20260903103011 72 0.0 0.0 0.00 0.00 0.00 96 1012.8
20260903101505 72 0.0 3.0 0.00 0.00 0.00 96 1012.7
20260903100005 73 0.0 2.0 0.00 0.00 0.00 96 1012.6
20260903094502 73 0.0 1.0 0.00 0.00 0.00 96 1012.6
20260903093002 73 0.0 3.0 0.00 0.00 0.00 96 1012.6
20260903091602 73 0.0 2.0 0.00 0.00 0.00 96 1012.5
20260903091504 73 0.0 2.0 0.00 0.00 0.00 96 1012.5
20260903090003 73 0.0 2.0 0.00 0.00 0.00 95 1012.5
20260903084559 73 0.0 2.0 0.00 0.00 0.00 95 1012.5
20260903083101 73 0.0 3.0 0.00 0.00 0.00 95 1012.5
20260903081558 73 0.0 3.0 0.00 0.00 0.00 96 1012.4
20260903080107 73 0.0 4.0 0.00 0.00 0.00 95 1012.5
20260903074618 74 0.0 3.0 0.00 0.00 0.00 95 1012.5
20260903073107 74 0.0 0.0 0.00 0.00 0.00 95 1012.4
20260903071606 74 0.0 0.0 0.00 0.00 0.00 95 1012.3
20260903070053 74 0.0 0.0 0.00 0.00 0.00 95 1012.3
20260903064551 74 0.0 0.0 0.00 0.00 0.00 94 1012.3
20260903063051 74 0.0 0.0 0.00 0.00 0.00 94 1012.4
20260903061555 75 0.0 1.0 0.00 0.00 0.00 94 1012.3
20260903060048 75 0.0 2.0 0.00 0.00 0.00 94 1012.4
20260903054548 75 0.0 0.0 0.00 0.00 0.00 94 1012.3
20260903053044 76 0.0 0.0 0.00 0.00 0.00 94 1012.3
20260903051542 76 0.0 0.0 0.00 0.00 0.00 94 1012.2
20260903050040 76 0.0 0.0 0.00 0.00 0.00 93 1012.1
20260903044539 77 0.0 0.0 0.00 0.00 0.00 93 1012.1
20260903043038 77 0.0 0.0 0.00 0.00 0.00 94 1012.0
20260903041541 78 0.0 2.0 0.00 0.00 0.00 94 1011.9
20260903040039 78 0.0 3.0 0.00 0.00 0.00 93 1011.9
20260903034546 78 0.0 3.0 0.00 0.00 0.00 93 1011.8
20260903033042 78 0.0 3.0 0.00 0.00 0.00 93 1011.9
20260903031544 79 0.0 3.0 0.00 0.00 0.00 93 1012.0
20260903030036 79 0.0 3.0 0.00 0.00 0.00 92 1012.0
20260903024538 79 0.0 3.0 0.00 0.00 0.00 91 1012.0
20260903023037 80 0.0 4.0 0.00 0.00 0.00 91 1012.0
20260903021534 80 0.0 4.0 0.00 0.00 0.00 90 1012.0
20260903020033 80 0.0 4.0 0.00 0.00 0.00 90 1011.9
20260903014547 81 0.0 5.0 0.00 0.00 0.00 89 1011.9
20260903013036 81 0.0 3.0 0.00 0.00 0.00 88 1011.9
20260903011536 82 0.0 3.0 0.00 0.00 0.00 87 1011.7
20260903010032 83 0.0 3.0 0.00 0.00 0.00 86 1011.5
20260903004541 84 0.0 3.0 0.00 0.00 0.00 84 1011.4
20260903003039 85 0.0 2.0 0.00 0.00 0.00 83 1011.4
20260903001530 86 0.0 2.0 0.00 0.00 0.00 80 1011.4
20260903000030 87 0.0 3.0 0.00 0.00 0.00 79 1011.6
20260902234528 88 0.0 3.0 0.00 0.00 0.00 77 1011.5
20260902233027 90 0.0 2.0 0.00 0.00 0.00 76 1011.5
20260902231527 90 0.0 5.0 0.00 0.00 0.00 74 1011.6
20260902230026 91 0.0 5.0 0.00 0.00 0.00 69 1011.6
20260902224526 92 0.0 7.0 0.00 0.00 0.00 68 1011.5
20260902223031 93 0.0 7.0 0.00 0.00 0.00 68 1011.7
20260902221525 93 0.0 7.0 0.00 0.00 0.00 67 1011.7
20260902220024 93 0.0 7.0 0.00 0.00 0.00 65 1011.7
20260902214528 94 0.0 10.0 0.00 0.00 0.00 62 1011.7
20260902213028 94 0.0 7.0 0.00 0.00 0.00 67 1011.8
20260902211522 94 0.0 8.0 0.00 0.00 0.00 63 1011.8
20260902210027 95 0.0 7.0 0.00 0.00 0.00 65 1011.9
20260902204521 95 0.0 8.0 0.00 0.00 0.00 62 1011.9
20260902203031 95 0.0 6.0 0.00 0.00 0.00 68 1011.9
20260902201519 95 0.0 9.0 0.00 0.00 0.00 64 1012.1
20260902200015 95 0.0 9.0 0.00 0.00 0.00 64 1012.3
20260902194512 94 0.0 8.0 0.00 0.00 0.00 65 1012.4